LEMUR-2 KANE

Last updated on June 10, 2016, 5:47 a.m. UTC

1 41489U 98067JK  16161.24268648  .00033399  00000-0  46698-3 0  9994
2 41489  51.6399  97.4559 0001625 134.9762   9.5634 15.56513558  2627

Satellite is not in orbit.